When you browse on this site, cookies collect data to enhance your experience and personalize the content and advertising you see.
Visit our Privacy Policy to learn more. By continuing to use the site, you agree to this use of cookies and data.
EN

Hourly Weather Montebello

Today, 23 September, Wednesday

Time Temperature Precipitation Wind Pressure Humidity
00:00 +24°C° 0 mm 1 mps 756 mmHg 57%
01:00 +24°C° 0 mm 1 mps 756 mmHg 57%
02:00 +24°C° 0 mm 1 mps 756 mmHg 58%
03:00 +24°C° 0 mm 1 mps 756 mmHg 58%
04:00 +23°C° 0 mm 1 mps 756 mmHg 62%
05:00 +24°C° 0 mm 1 mps 756 mmHg 60%
06:00 +24°C° 0 mm 1 mps 757 mmHg 58%
07:00 +25°C° 0 mm 1 mps 757 mmHg 56%
08:00 +26°C° 0 mm 1 mps 757 mmHg 51%
09:00 +28°C° 0 mm 1 mps 757 mmHg 46%
10:00 +29°C° 0 mm 2 mps 757 mmHg 41%
11:00 +30°C° 0 mm 2 mps 756 mmHg 38%
12:00 +31°C° 0 mm 3 mps 756 mmHg 35%
13:00 +33°C° 0 mm 3 mps 755 mmHg 32%
14:00 +33°C° 0 mm 3 mps 755 mmHg 32%
15:00 +33°C° 0 mm 3 mps 755 mmHg 32%
16:00 +33°C° 0 mm 3 mps 754 mmHg 31%
17:00 +30°C° 0 mm 3 mps 755 mmHg 35%
18:00 +29°C° 0 mm 2 mps 755 mmHg 39%
19:00 +27°C° 0 mm 2 mps 755 mmHg 43%
20:00 +27°C° 0 mm 1 mps 755 mmHg 44%
21:00 +27°C° 0 mm 1 mps 755 mmHg 45%
22:00 +27°C° 0 mm 1 mps 755 mmHg 46%
23:00 +26°C° 0 mm 1 mps 755 mmHg 46%

Tomorrow, 24 September, Thursday

Time Temperature Precipitation Wind Pressure Humidity
00:00 +26°C° 0 mm 1 mps 755 mmHg 47%
01:00 +26°C° 0 mm 1 mps 754 mmHg 47%
02:00 +26°C° 0 mm 1 mps 754 mmHg 47%
03:00 +25°C° 0 mm 1 mps 754 mmHg 47%
04:00 +25°C° 0 mm 1 mps 754 mmHg 47%
05:00 +26°C° 0 mm 1 mps 754 mmHg 45%
06:00 +24°C° 0 mm 0 mps 754 mmHg 44%
07:00 +24°C° 0 mm 0 mps 754 mmHg 43%
08:00 +28°C° 0 mm 1 mps 754 mmHg 39%
09:00 +29°C° 0 mm 1 mps 754 mmHg 35%
10:00 +31°C° 0 mm 2 mps 754 mmHg 31%
11:00 +32°C° 0 mm 2 mps 753 mmHg 30%
12:00 +34°C° 0 mm 3 mps 753 mmHg 28%
13:00 +35°C° 0 mm 3 mps 753 mmHg 26%
14:00 +34°C° 0 mm 3 mps 752 mmHg 27%
15:00 +33°C° 0 mm 3 mps 752 mmHg 29%
16:00 +33°C° 0 mm 3 mps 751 mmHg 30%
17:00 +31°C° 0 mm 3 mps 752 mmHg 33%
18:00 +29°C° 0 mm 2 mps 752 mmHg 36%
19:00 +28°C° 0 mm 2 mps 752 mmHg 40%
20:00 +27°C° 0 mm 1 mps 752 mmHg 41%
21:00 +27°C° 0 mm 1 mps 753 mmHg 42%
22:00 +26°C° 0 mm 1 mps 753 mmHg 44%
23:00 +26°C° 0 mm 1 mps 753 mmHg 45%

Day after tomorrow, 25 September, Friday

Time Temperature Precipitation Wind Pressure Humidity
00:00 +26°C° 0 mm 1 mps 752 mmHg 46%
01:00 +26°C° 0 mm 1 mps 752 mmHg 47%
02:00 +25°C° 0 mm 1 mps 752 mmHg 48%
03:00 +25°C° 0 mm 1 mps 752 mmHg 49%
04:00 +25°C° 0 mm 1 mps 752 mmHg 49%
05:00 +25°C° 0 mm 1 mps 752 mmHg 49%
06:00 +25°C° 0 mm 1 mps 753 mmHg 49%
07:00 +26°C° 0 mm 1 mps 753 mmHg 48%
08:00 +27°C° 0 mm 1 mps 753 mmHg 45%
09:00 +28°C° 0 mm 2 mps 753 mmHg 41%
10:00 +30°C° 0 mm 2 mps 753 mmHg 38%
11:00 +30°C° 0 mm 2 mps 753 mmHg 37%
12:00 +31°C° 0 mm 3 mps 753 mmHg 36%
13:00 +33°C° 0 mm 3 mps 753 mmHg 36%
14:00 +31°C° 0 mm 3 mps 752 mmHg 37%
15:00 +31°C° 0 mm 3 mps 752 mmHg 38%
16:00 +31°C° 0 mm 3 mps 751 mmHg 39%
17:00 +29°C° 0 mm 3 mps 752 mmHg 44%
18:00 +28°C° 0 mm 2 mps 752 mmHg 49%
19:00 +26°C° 0 mm 2 mps 753 mmHg 54%
20:00 +26°C° 0 mm 2 mps 753 mmHg 54%
21:00 +26°C° 0 mm 1 mps 753 mmHg 55%
22:00 +25°C° 0 mm 1 mps 754 mmHg 56%
23:00 +25°C° 0 mm 1 mps 754 mmHg 57%

26 September, Saturday

Time Temperature Precipitation Wind Pressure Humidity
00:00 +25°C° 0 mm 1 mps 754 mmHg 58%
01:00 +24°C° 0 mm 1 mps 753 mmHg 59%
02:00 +24°C° 0 mm 1 mps 753 mmHg 60%
03:00 +24°C° 0 mm 1 mps 753 mmHg 62%
04:00 +23°C° 0 mm 1 mps 753 mmHg 64%
05:00 +24°C° 0 mm 1 mps 753 mmHg 64%
06:00 +24°C° 0 mm 1 mps 754 mmHg 64%
07:00 +24°C° 0 mm 1 mps 754 mmHg 64%
08:00 +26°C° 0 mm 2 mps 754 mmHg 59%
09:00 +27°C° 0 mm 2 mps 754 mmHg 54%
10:00 +28°C° 0 mm 2 mps 754 mmHg 49%
11:00 +29°C° 0 mm 3 mps 753 mmHg 47%
12:00 +30°C° 0 mm 3 mps 753 mmHg 44%
13:00 +31°C° 0 mm 3 mps 752 mmHg 42%
14:00 +31°C° 0 mm 3 mps 752 mmHg 43%
15:00 +30°C° 0 mm 3 mps 752 mmHg 44%
16:00 +30°C° 0 mm 3 mps 751 mmHg 45%
17:00 +28°C° 0 mm 3 mps 752 mmHg 49%
18:00 +27°C° 0 mm 2 mps 752 mmHg 54%
19:00 +26°C° 0 mm 2 mps 752 mmHg 58%
20:00 +25°C° 0 mm 2 mps 753 mmHg 59%
21:00 +25°C° 0 mm 1 mps 753 mmHg 59%
22:00 +25°C° 0 mm 1 mps 754 mmHg 60%
23:00 +25°C° 0 mm 1 mps 754 mmHg 60%

27 September, Sunday

Time Temperature Precipitation Wind Pressure Humidity
00:00 +24°C° 0 mm 1 mps 753 mmHg 59%
01:00 +24°C° 0 mm 1 mps 753 mmHg 59%
02:00 +24°C° 0 mm 1 mps 753 mmHg 59%
03:00 +24°C° 0 mm 1 mps 753 mmHg 59%
04:00 +24°C° 0 mm 1 mps 753 mmHg 59%
05:00 +25°C° 0 mm 1 mps 753 mmHg 57%
06:00 +25°C° 0 mm 1 mps 754 mmHg 56%
07:00 +25°C° 0 mm 1 mps 754 mmHg 55%
08:00 +27°C° 0 mm 1 mps 754 mmHg 50%
09:00 +29°C° 0 mm 1 mps 754 mmHg 45%
10:00 +30°C° 0 mm 2 mps 755 mmHg 41%
11:00 +31°C° 0 mm 2 mps 754 mmHg 39%
12:00 +33°C° 0 mm 3 mps 754 mmHg 37%
13:00 +34°C° 0 mm 3 mps 753 mmHg 35%
14:00 +33°C° 0 mm 3 mps 753 mmHg 36%
15:00 +33°C° 0 mm 3 mps 753 mmHg 37%
16:00 +31°C° 0 mm 3 mps 753 mmHg 38%
17:00 +30°C° 0 mm 3 mps 753 mmHg 42%
18:00 +29°C° 0 mm 2 mps 753 mmHg 45%
19:00 +27°C° 0 mm 2 mps 754 mmHg 49%
20:00 +27°C° 0 mm 1 mps 754 mmHg 49%
21:00 +27°C° 0 mm 1 mps 754 mmHg 49%
22:00 +26°C° 0 mm 1 mps 755 mmHg 50%
23:00 +26°C° 0 mm 1 mps 754 mmHg 50%

28 September, Monday

Time Temperature Precipitation Wind Pressure Humidity
00:00 +26°C° 0 mm 1 mps 754 mmHg 50%
01:00 +26°C° 0 mm 1 mps 754 mmHg 50%
02:00 +26°C° 0 mm 1 mps 754 mmHg 49%
03:00 +26°C° 0 mm 1 mps 753 mmHg 49%
04:00 +26°C° 0 mm 1 mps 753 mmHg 49%
05:00 +26°C° 0 mm 1 mps 754 mmHg 48%
06:00 +27°C° 0 mm 1 mps 754 mmHg 47%
07:00 +27°C° 0 mm 1 mps 754 mmHg 46%
08:00 +29°C° 0 mm 1 mps 754 mmHg 41%
09:00 +30°C° 0 mm 1 mps 754 mmHg 36%
10:00 +32°C° 0 mm 2 mps 754 mmHg 31%
11:00 +34°C° 0 mm 2 mps 754 mmHg 29%
12:00 +35°C° 0 mm 3 mps 754 mmHg 27%
13:00 +36°C° 0 mm 3 mps 753 mmHg 26%
14:00 +35°C° 0 mm 3 mps 753 mmHg 27%
15:00 +35°C° 0 mm 3 mps 752 mmHg 28%
16:00 +34°C° 0 mm 3 mps 752 mmHg 29%
17:00 +33°C° 0 mm 3 mps 752 mmHg 31%
18:00 +31°C° 0 mm 2 mps 753 mmHg 34%
19:00 +29°C° 0 mm 2 mps 753 mmHg 37%
20:00 +29°C° 0 mm 1 mps 753 mmHg 38%
21:00 +28°C° 0 mm 1 mps 753 mmHg 38%
22:00 +28°C° 0 mm 1 mps 753 mmHg 39%
23:00 +28°C° 0 mm 1 mps 753 mmHg 39%
Show more